Change the Weather History Date:

Wednesday, February 19, 2014

  Actual Average Record
Temperature  
Mean Temperature 37 °F 30 °F  
Max Temperature 46 °F 38 °F 65 °F (1939)
Min Temperature 27 °F 22 °F -9 °F (1936)
Degree Days  
Heating Degree Days 28 35  
Month to date heating degree days 834 702  
Since 1 July heating degree days 4479 4238  
Cooling Degree Days 0 0  
Month to date cooling degree days 0 0  
Year to date cooling degree days 0 0  
Moisture  
Dew Point 26 °F    
Average Humidity 69    
Maximum Humidity 96    
Minimum Humidity 41    
Precipitation  
Precipitation 0.00 in 0.08 in 1.09 in (1981)
Month to date precipitation 1.20 1.54  
Year to date precipitation 3.12 4.15  
Snow  
Snow 0.00 in 0.40 in - ()
Month to date snowfall 15.1 7.0  
Since 1 July snowfall 57.4 33.0  
Snow Depth 9.00 in    
Sea Level Pressure  
Sea Level Pressure 29.86 in    
Wind  
Wind Speed 11 mph (WSW)    
Max Wind Speed 22 mph    
Max Gust Speed 24 mph    
Visibility 9 miles    
Events      
T = Trace of Precipitation, MM = Missing Value Source: NWS Daily Summary

Daily Weather History Graph

Daily Weather History Graph

Search for Another Location

Airport or City:

Trip Planner

Search our weather history database for the weather conditions in past years. The results will help you decide how hot, cold, wet, or windy it might be!

Date:

Astronomy

Feb. 19, 2014 Rise Set
Actual Time 7:14 AM EST 6:05 PM EST
Civil Twilight 6:46 AM EST 6:33 PM EST
Nautical Twilight 6:14 AM EST 7:05 PM EST
Astronomical Twilight 5:42 AM EST 7:36 PM EST
Moon 10:59 PM EST (2/19) 9:17 AM EST (2/19)
Length of Visible Light 11h 46m
Length of Day
10h 50m
Waning Gibbous, 80% of the Moon is Illuminated
Feb 19
Waning Gibbous
Feb 22
Last Quarter
Mar 1
New
Mar 8
First Quarter
Mar 16
Full

Hourly Weather History & Observations

Time (EST) Temp. Windchill Dew Point Humidity Pressure Visibility Wind Dir Wind Speed Gust Speed Precip Events Conditions
12:51 AM 41.0 °F 35.2 °F 22.1 °F 47% 29.81 in 10.0 mi South 9.2 mph - N/A   Overcast
1:51 AM 43.0 °F 37.7 °F 22.1 °F 44% 29.77 in 10.0 mi SSE 9.2 mph - N/A   Overcast
2:51 AM 44.1 °F 37.7 °F 23.0 °F 43% 29.74 in 10.0 mi SSW 12.7 mph - N/A   Overcast
3:51 AM 44.1 °F 37.7 °F 23.0 °F 43% 29.70 in 10.0 mi SSW 12.7 mph - N/A   Overcast
4:51 AM 44.1 °F 38.1 °F 25.0 °F 47% 29.68 in 10.0 mi SW 11.5 mph - N/A   Overcast
5:51 AM 43.0 °F 37.7 °F 26.1 °F 51% 29.67 in 10.0 mi SSW 9.2 mph - N/A   Overcast
6:51 AM 43.0 °F 37.7 °F 26.1 °F 51% 29.67 in 10.0 mi SSW 9.2 mph - N/A   Scattered Clouds
7:51 AM 44.1 °F 40.1 °F 24.1 °F 45% 29.68 in 10.0 mi SW 6.9 mph - N/A   Mostly Cloudy
8:51 AM 44.1 °F 37.7 °F 24.1 °F 45% 29.70 in 10.0 mi SW 12.7 mph - N/A   Mostly Cloudy
9:51 AM 45.0 °F 38.5 °F 24.1 °F 44% 29.69 in 10.0 mi WSW 13.8 mph - N/A   Mostly Cloudy
10:51 AM 44.1 °F 36.2 °F 22.1 °F 42% 29.71 in 10.0 mi WSW 18.4 mph - N/A   Scattered Clouds
11:51 AM 46.0 °F 38.3 °F 28.0 °F 50% 29.74 in 10.0 mi West 20.7 mph - N/A   Scattered Clouds
12:30 PM 44.6 °F 36.9 °F 30.2 °F 57% 29.74 in 10.0 mi West 18.4 mph - N/A   Mostly Cloudy
12:51 PM 44.1 °F 36.2 °F 30.0 °F 58% 29.78 in 10.0 mi West 18.4 mph - N/A   Mostly Cloudy
1:51 PM 42.1 °F 32.3 °F 30.0 °F 62% 29.82 in 10.0 mi WNW 24.2 mph - N/A   Overcast
2:51 PM 39.9 °F 30.5 °F 28.0 °F 63% 29.88 in 10.0 mi West 19.6 mph - N/A   Mostly Cloudy
3:51 PM 38.1 °F 29.8 °F 28.2 °F 68% 29.94 in 8.0 mi WNW 13.8 mph - N/A   Overcast
4:21 PM 37.4 °F 28.9 °F 28.4 °F 70% 29.94 in 8.0 mi WNW 13.8 mph - N/A   Scattered Clouds
4:51 PM 38.7 °F 31.4 °F 28.0 °F 66% 29.99 in 8.0 mi West 11.5 mph - N/A   Partly Cloudy
5:51 PM 39.9 °F 33.9 °F 28.4 °F 63% 30.03 in 8.0 mi West 9.2 mph - N/A   Scattered Clouds
6:51 PM 38.1 °F 31.7 °F 28.9 °F 70% 30.08 in 8.0 mi West 9.2 mph - N/A   Partly Cloudy
7:51 PM 36.9 °F 31.4 °F 28.8 °F 72% 30.12 in 8.0 mi SW 6.9 mph - N/A   Partly Cloudy
8:51 PM 34.2 °F 28.2 °F 28.0 °F 78% 30.12 in 8.0 mi SW 6.9 mph - N/A   Clear
9:51 PM 30.0 °F - 27.3 °F 90% 30.13 in 6.0 mi Calm Calm - N/A   Clear
10:51 PM 27.0 °F - 25.3 °F 94% 30.12 in 5.0 mi Calm Calm - N/A   Clear
11:51 PM 28.9 °F - 27.0 °F 92% 30.10 in 5.0 mi Calm Calm - N/A   Clear